Weather History for Monterey, CA

Change the Weather History Date:

Friday, September 2, 2011

  Actual Average Record
Temperature  
Mean Temperature 60 °F 62 °F  
Max Temperature 70 °F 70 °F 83 °F (2010)
Min Temperature 50 °F 54 °F 47 °F (2012)
Degree Days  
Heating Degree Days 5    
Month to date heating degree days 9  
Since 1 July heating degree days 307  
Cooling Degree Days 0    
Month to date cooling degree days 0  
Year to date cooling degree days 3  
Growing Degree Days 10 (Base 50)    
Moisture  
Dew Point 51 °F    
Average Humidity 75    
Maximum Humidity 96    
Minimum Humidity 53    
Precipitation  
Precipitation 0.00 in - 0.12 in (2000)
Month to date precipitation 0.00  
Year to date precipitation 12.90  
Since 1 July precipitation 0.11  
Sea Level Pressure  
Sea Level Pressure 29.90 in    
Wind  
Wind Speed 3 mph (West)    
Max Wind Speed 14 mph    
Max Gust Speed 20 mph    
Visibility 5 miles    
Events Fog    
T = Trace of Precipitation, MM = Missing Value Source: NWS Daily Summary

Daily Weather History Graph

Daily Weather History Graph

Search for Another Location

Airport:

Trip Planner

Search our weather history database for the weather conditions in past years. The results will help you decide how hot, cold, wet, or windy it might be!

Date:

Astronomy

Sep. 02, 2011 Rise Set
Actual Time 6:39 AM PDT 7:34 PM PDT
Civil Twilight 6:12 AM PDT 8:00 PM PDT
Nautical Twilight 5:41 AM PDT 8:31 PM PDT
Astronomical Twilight 5:09 AM PDT 9:03 PM PDT
Moon 12:06 PM PDT (9/2) 10:25 PM PDT (9/2)
Length of Visible Light 13h 47m
Length of Day
12h 55m
Waxing Crescent, 29% of the Moon is Illuminated
Sep 2
Waxing Crescent
Sep 4
First Quarter
Sep 12
Full
Sep 20
Last Quarter
Sep 27
New

Hourly Weather History & Observations

Time (PDT) Temp. Dew Point Humidity Pressure Visibility Wind Dir Wind Speed Gust Speed Precip Events Conditions
12:02 AM 53.6 °F 50.0 °F 88% 29.87 in 8.0 mi Calm Calm - N/A   Scattered Clouds
12:54 AM 54.0 °F 48.9 °F 83% 29.90 in 10.0 mi Calm Calm - N/A   Clear
1:54 AM 54.0 °F 50.0 °F 86% 29.91 in 6.0 mi Calm Calm - N/A   Scattered Clouds
2:04 AM 53.6 °F 50.0 °F 88% 29.87 in 5.0 mi Calm Calm - N/A   Mostly Cloudy
2:25 AM 53.6 °F 50.0 °F 88% 29.87 in 1.8 mi Calm Calm - N/A   Overcast
2:37 AM 53.6 °F 50.0 °F 88% 29.87 in 1.0 mi Calm Calm - N/A   Overcast
2:54 AM 53.1 °F 51.1 °F 93% 29.91 in 1.8 mi Calm Calm - N/A   Overcast
3:08 AM 53.6 °F 51.8 °F 94% 29.87 in 0.8 mi Calm Calm - N/A   Overcast
3:24 AM 53.6 °F 51.8 °F 94% 29.87 in 0.5 mi Calm Calm - N/A Fog Fog
3:48 AM 51.8 °F 50.0 °F 94% 29.87 in 2.0 mi Calm Calm - N/A   Overcast
3:49 AM 52.0 °F 50.0 °F 93% 29.91 in 2.5 mi Calm Calm - N/A   Overcast
3:56 AM 51.8 °F 50.0 °F 94% 29.87 in 3.0 mi Calm Calm - N/A   Overcast
4:04 AM 51.8 °F 50.0 °F 94% 29.87 in 1.8 mi Calm Calm - N/A   Overcast
4:33 AM 51.8 °F 50.0 °F 94% 29.86 in 0.8 mi Calm Calm - N/A   Overcast
4:54 AM 51.1 °F 48.9 °F 92% 29.90 in 0.2 mi Calm Calm - N/A Fog Fog
5:30 AM 51.8 °F 48.2 °F 88% 29.87 in 0.5 mi East 3.5 mph - N/A Fog Fog
5:46 AM 51.8 °F 48.2 °F 88% 29.87 in 0.2 mi Calm Calm - N/A Fog Fog
5:54 AM 51.1 °F 48.9 °F 92% 29.91 in 0.2 mi Calm Calm - N/A Fog Fog
6:12 AM 50.0 °F 48.2 °F 94% 29.87 in 1.0 mi Calm Calm - N/A   Mist
6:21 AM 50.0 °F 48.2 °F 94% 29.87 in 0.5 mi Calm Calm - N/A Fog Fog
6:50 AM 51.8 °F 50.0 °F 94% 29.88 in 0.2 mi WNW 3.5 mph - N/A Fog Fog
6:54 AM 52.0 °F 50.0 °F 93% 29.92 in 0.2 mi Calm Calm - N/A Fog Fog
7:16 AM 51.8 °F 50.0 °F 94% 29.89 in 0.2 mi Calm Calm - N/A Fog Fog
7:54 AM 51.1 °F 50.0 °F 96% 29.93 in 0.2 mi Calm Calm - N/A Fog Fog
8:54 AM 53.1 °F 51.1 °F 93% 29.94 in 0.5 mi Calm Calm - N/A Fog Fog
9:54 AM 59.0 °F 51.8 °F 77% 29.91 in 10.0 mi NNE 4.6 mph - N/A   Overcast
10:02 AM 59.0 °F 51.8 °F 77% 29.92 in 10.0 mi Variable 3.5 mph - N/A   Scattered Clouds
10:54 AM 62.1 °F 52.0 °F 70% 29.96 in 10.0 mi North 4.6 mph - N/A   Clear
11:54 AM 66.0 °F 51.1 °F 59% 29.96 in 10.0 mi WNW 4.6 mph - N/A   Clear
12:54 PM 68.0 °F 52.0 °F 56% 29.94 in 10.0 mi Variable 4.6 mph - N/A   Clear
1:54 PM 69.1 °F 52.0 °F 54% 29.93 in 10.0 mi Variable 4.6 mph - N/A   Clear
2:54 PM 68.0 °F 53.1 °F 59% 29.93 in 10.0 mi WSW 6.9 mph - N/A   Clear
3:54 PM 68.0 °F 51.1 °F 55% 29.92 in 10.0 mi SW 6.9 mph - N/A   Clear
4:54 PM 64.9 °F 52.0 °F 63% 29.92 in 10.0 mi SW 9.2 mph - N/A   Clear
5:54 PM 61.0 °F 52.0 °F 72% 29.93 in 10.0 mi SW 15.0 mph - N/A   Clear
6:54 PM 59.0 °F 52.0 °F 78% 29.93 in 10.0 mi SW 9.2 mph - N/A   Clear
7:54 PM 57.9 °F 52.0 °F 81% 29.93 in 10.0 mi West 3.5 mph - N/A   Clear
8:45 PM 57.2 °F 51.8 °F 82% 29.90 in 9.0 mi Calm Calm - N/A   Scattered Clouds
8:54 PM 57.0 °F 51.1 °F 81% 29.94 in 9.0 mi Calm Calm - N/A   Mostly Cloudy
9:54 PM 57.0 °F 51.1 °F 81% 29.94 in 8.0 mi ENE 3.5 mph - N/A   Overcast
10:54 PM 57.2 °F 51.8 °F 82% 29.90 in 8.0 mi Calm Calm - N/A   Overcast
11:54 PM 57.0 °F 52.0 °F 83% 29.93 in 8.0 mi Calm Calm - N/A   Overcast